This demonstration page uses our WeatherBlox Daily Observations layout. Learn more.

38.88101, -77.10428

Hourly Observations for February 17, 2018

Temp ( °F °C ) Dew Point ( °F °C ) Humidity (%) Winds ( mph kmh ) Pressure ( in mb ) Visibility ( mi km ) Precip ( " mm )
12:52 am 00:52 Partly Cloudy 39 3.9 25 -3.9 57 57 NW 13 20 30.27 1025 10 16.0934 0 0
1:52 am 01:52 Partly Cloudy 37 2.8 26 -3.3 65 65 NNW 8 13 30.29 1026 10 16.0934 0 0
2:52 am 02:52 Mostly Cloudy 37 2.8 25 -3.9 62 62 NNW 9 15 30.32 1027 10 16.0934 0 0
3:52 am 03:52 Mostly Clear 35 1.7 25 -3.9 67 67 NNW 8 13 30.34 1027 10 16.0934 0 0
4:52 am 04:52 Mostly Clear 36 2.2 24 -4.4 62 62 N 14 22 30.36 1028 10 16.0934 0 0
5:52 am 05:52 Mostly Clear 36 2.2 23 -5 59 59 NNE 12 19 30.37 1028 10 16.0934 0 0
6:52 am 06:52 Mostly Cloudy 34 1.1 24 -4.4 67 67 NNE 8 13 30.37 1029 10 16.0934 0 0
7:52 am 07:52 Mostly Cloudy 35 1.7 24 -4.4 64 64 ENE 8 13 30.39 1029 10 16.0934 0 0
8:52 am 08:52 Mostly Cloudy 37 2.8 23 -5 57 57 ENE 10 17 30.38 1029 10 16.0934 0 0
9:52 am 09:52 Mostly Cloudy 39 3.9 23 -5 53 53 E 9 15 30.38 1029 10 16.0934 0 0
10:52 am 10:52 Mostly Cloudy 42 5.6 25 -3.9 51 51 ESE 9 15 30.36 1028 10 16.0934 0 0
11:52 am 11:52 Mostly Cloudy 43 6.1 25 -3.9 49 49 SSE 8 13 30.33 1027 10 16.0934 0 0
12:52 pm 12:52 Cloudy 43 6.1 25 -3.9 49 49 SSE 9 15 30.25 1024 10 16.0934 0 0
1:52 pm 13:52 Cloudy 42 5.6 26 -3.3 53 53 SE 9 15 30.26 1025 10 16.0934 0 0
1:59 pm 13:59 Cloudy with Light Rain/Snow 41 5 26 -3.3 55 55 SE 8 13 30.27 1025 10 16.0934 0 0.0254
2:35 pm 14:35 Cloudy with Light Rain/Snow 39 3.9 28 -2.2 65 65 VRB 3 6 30.27 1025 5 8.0467 0.01 0.254
2:52 pm 14:52 Cloudy with Light Snow 36 2.2 31 -0.6 82 82 S 7 11 30.26 1025 3 4.82802 0.02 0.508
3:06 pm 15:06 Cloudy with Light Snow 36 2.2 32 0 86 86 E 5 7 30.27 1025 2.5 4.02335 0.01 0.254
3:22 pm 15:22 Cloudy with Light Snow 36 2.2 33 0.6 89 89 ENE 3 6 30.24 1024 4 6.43736 0.01 0.254
3:35 pm 15:35 Cloudy with Light Snow 36 2.2 33 0.6 89 89 ENE 5 7 30.24 1024 5 8.0467 0.02 0.508
3:52 pm 15:52 Cloudy with Light Snow 36 2.2 33 0.6 89 89 ENE 7 11 30.24 1024 4 6.43736 0.03 0.762
3:56 pm 15:56 Cloudy with Light Snow 35 1.7 33 0.6 93 93 ENE 7 11 30.24 1024 2.5 4.02335 0 0.0254
4:03 pm 16:03 Cloudy with Light Snow 35 1.7 33 0.6 93 93 E 7 11 30.24 1024 1.5 2.41401 0.01 0.254
4:06 pm 16:06 Cloudy with Light Snow 35 1.7 33 0.6 93 93 ENE 8 13 30.24 1024 0.75 1.207005 0.02 0.508
4:13 pm 16:13 Cloudy with Light Snow 34 1.1 33 0.6 97 97 ENE 6 9 30.24 1024 0.75 1.207005 0.04 1.016
4:20 pm 16:20 Cloudy with Light Snow 34 1.1 33 0.6 97 97 ENE 7 11 30.24 1024 1 1.60934 0.06 1.524
4:33 pm 16:33 Cloudy with Light Snow 34 1.1 33 0.6 97 97 NE 9 15 30.21 1023 0.75 1.207005 0.08 2.032
4:52 pm 16:52 Cloudy with Light Snow 34 1.1 33 0.6 97 97 NE 10 17 30.19 1022 0.75 1.207005 0.13 3.302
4:57 pm 16:57 Cloudy with Light Snow 34 1.1 33 0.6 97 97 NE 7 11 30.18 1022 2 3.21868 0.02 0.508
4:59 pm 16:59 Cloudy with Light Snow 34 1.1 34 1.1 100 100 NE 7 11 30.21 1023 2.5 4.02335 0.02 0.508
5:10 pm 17:10 Cloudy with Light Rain 34 1.1 34 1.1 100 100 N 6 9 30.21 1023 3 4.82802 0.03 0.762
5:22 pm 17:22 Cloudy with Rain 34 1.1 33 0.6 97 97 NE 5 7 30.18 1022 2 3.21868 0.05 1.27
5:25 pm 17:25 Cloudy with Light Snow 34 1.1 33 0.6 97 97 E 7 11 30.18 1022 1 1.60934 0.06 1.524
5:40 pm 17:40 Cloudy with Rain 34 1.1 34 1.1 100 100 SE 5 7 30.18 1022 1.5 2.41401 0.1 2.54
5:52 pm 17:52 Cloudy with Rain 34 1.1 33 0.6 97 97 SE 5 7 30.17 1022 3 4.82802 0.14 3.556
6:03 pm 18:03 Cloudy with Rain 34 1.1 34 1.1 100 100 SE 5 7 30.18 1022 3 4.82802 0.02 0.508
6:11 pm 18:11 Cloudy with Rain 35 1.7 33 0.6 93 93 S 3 6 30.18 1022 4 6.43736 0.05 1.27
6:17 pm 18:17 Cloudy with Rain 35 1.7 33 0.6 93 93 SSE 5 7 30.18 1022 4 6.43736 0.06 1.524
6:52 pm 18:52 Cloudy with Light Rain 35 1.7 33 0.6 93 93 SSE 8 13 30.16 1021 5 8.0467 0.09 2.286
7:02 pm 19:02 Cloudy with Light Rain 35 1.7 33 0.6 93 93 SSE 8 13 30.15 1021 9 14.48406 0 0.0254
7:52 pm 19:52 Cloudy 35 1.7 33 0.6 93 93 SSE 5 7 30.12 1020 10 16.0934 0.01 0.254
8:19 pm 20:19 Cloudy with Light Drizzle 35 1.7 33 0.6 93 93 SSE 7 11 30.09 1019 10 16.0934 0 0.0254
8:52 pm 20:52 Cloudy 35 1.7 33 0.6 93 93 S 6 9 30.1 1019 10 16.0934 0 0.0254
9:46 pm 21:46 Cloudy 36 2 34 1 93 93 SW 6 9 30.09 1019 10 16.0934 0 0
9:52 pm 21:52 Cloudy 35 1.7 34 1.1 96 96 SW 6 9 30.09 1019 10 16.0934 0 0
10:01 pm 22:01 Mostly Cloudy 35 1.7 33 0.6 93 93 SW 6 9 30.09 1019 10 16.0934 0 0
10:14 pm 22:14 Cloudy 35 1.7 34 1.1 96 96 WSW 5 7 30.09 1019 10 16.0934 0 0
10:28 pm 22:28 Cloudy 35 1.7 34 1.1 96 96 WSW 3 6 30.09 1019 10 16.0934 0 0
10:52 pm 22:52 Cloudy 36 2.2 34 1.1 93 93 SSW 3 6 30.07 1018 10 16.0934 0 0
11:12 pm 23:12 Cloudy 36 2.2 34 1.1 93 93 SSW 8 13 30.06 1018 10 16.0934 0 0
11:52 pm 23:52 Cloudy 36 2.2 35 1.7 97 97 SSW 8 13 30.04 1017 10 16.0934 0 0

Powered by AerisWeather